Worthington, MN

6:14 AM CST on December 07, 2016 (GMT -0600)
Worthington Municipal

Weather History for KOTG - July, 2013

Change the Weather History Date:

Thursday, July 4, 2013

  Actual Average Record
Temperature  
Mean Temperature 74 °F -  
Max Temperature 86 °F 77 °F 102 °F (1990)
Min Temperature 62 °F 59 °F 45 °F (1972)
Cooling Degree Days 9    
Growing Degree Days 24 (Base 50)    
Moisture  
Dew Point 54 °F    
Average Humidity 51    
Maximum Humidity 77    
Minimum Humidity 33    
Precipitation  
Precipitation 0.00 in - - ()
Sea Level Pressure  
Sea Level Pressure 29.94 in    
Wind  
Wind Speed 12 mph (South)    
Max Wind Speed 24 mph    
Max Gust Speed 30 mph    
Visibility 10 miles    
Events      
Averages and records for this station are not official NWS values.
T = Trace of Precipitation, MM = Missing Value Source: NWS Daily Summary

Daily Weather History Graph

Daily Weather History Graph

Search for Another Location

Airport or City:

Trip Planner

Search our weather history database for the weather conditions in past years. The results will help you decide how hot, cold, wet, or windy it might be!

Date:

Astronomy

Jul. 04, 2013 Rise Set
Actual Time 5:46 AM CDT 9:06 PM CDT
Civil Twilight 5:10 AM CDT 9:42 PM CDT
Nautical Twilight 4:24 AM CDT 10:28 PM CDT
Astronomical Twilight 3:27 AM CDT 11:25 PM CDT
Moon 3:06 AM CDT (7/4) 6:10 PM CDT (7/4)
Length of Visible Light 16h 31m
Length of Day
15h 20m
Waning Crescent, 11% of the Moon is Illuminated
Jul 4
Waning Crescent
Jul 8
New
Jul 15
First Quarter
Jul 22
Full
Jul 29
Last Quarter

Hourly Weather History & Observations

Time (CDT) Temp. Heat Index Dew Point Humidity Pressure Visibility Wind Dir Wind Speed Gust Speed Precip Events Conditions
12:15 AM 66.2 °F - 55.4 °F 68% 29.98 in 10.0 mi SSE 5.8 mph - N/A   Clear
12:35 AM 66.2 °F - 55.4 °F 68% 29.98 in 10.0 mi South 8.1 mph - N/A   Clear
12:55 AM 68.0 °F - 55.4 °F 64% 29.98 in 10.0 mi South 8.1 mph - N/A   Clear
1:15 AM 66.2 °F - 53.6 °F 64% 29.98 in 10.0 mi South 9.2 mph - N/A   Clear
1:35 AM 66.2 °F - 53.6 °F 64% 29.98 in 10.0 mi South 9.2 mph - N/A   Clear
1:55 AM 66.2 °F - 53.6 °F 64% 29.97 in 10.0 mi South 10.4 mph - N/A   Clear
2:15 AM 66.2 °F - 53.6 °F 64% 29.98 in 10.0 mi South 10.4 mph - N/A   Clear
2:35 AM 66.2 °F - 53.6 °F 64% 29.97 in 10.0 mi South 11.5 mph - N/A   Clear
2:55 AM 64.4 °F - 55.4 °F 73% 29.98 in 10.0 mi South 11.5 mph - N/A   Clear
3:15 AM 64.4 °F - 55.4 °F 73% 29.97 in 10.0 mi SSW 9.2 mph - N/A   Clear
3:35 AM 64.4 °F - 53.6 °F 68% 29.97 in 10.0 mi South 9.2 mph - N/A   Clear
3:55 AM 62.6 °F - 55.4 °F 77% 29.97 in 10.0 mi South 9.2 mph - N/A   Clear
4:15 AM 62.6 °F - 55.4 °F 77% 29.97 in 10.0 mi SSW 9.2 mph - N/A   Clear
4:35 AM 64.4 °F - 53.6 °F 68% 29.98 in 10.0 mi SSW 11.5 mph - N/A   Clear
4:55 AM 62.6 °F - 53.6 °F 72% 29.98 in 10.0 mi SSW 11.5 mph - N/A   Clear
5:15 AM 62.6 °F - 53.6 °F 72% 29.98 in 10.0 mi SSW 10.4 mph - N/A   Clear
5:35 AM 62.6 °F - 53.6 °F 72% 29.98 in 10.0 mi SSW 10.4 mph - N/A   Clear
5:55 AM 62.6 °F - 53.6 °F 72% 29.98 in 10.0 mi SSW 10.4 mph - N/A   Clear
6:15 AM 64.4 °F - 53.6 °F 68% 29.97 in 10.0 mi SSW 10.4 mph - N/A   Clear
6:35 AM 64.4 °F - 53.6 °F 68% 29.98 in 10.0 mi SSW 10.4 mph - N/A   Clear
6:55 AM 64.4 °F - 53.6 °F 68% 29.98 in 10.0 mi SSW 12.7 mph - N/A   Clear
7:15 AM 64.4 °F - 53.6 °F 68% 29.97 in 10.0 mi SSW 12.7 mph - N/A   Clear
7:35 AM 66.2 °F - 53.6 °F 64% 29.98 in 10.0 mi SSW 12.7 mph - N/A   Clear
7:55 AM 66.2 °F - 53.6 °F 64% 29.98 in 10.0 mi SSW 15.0 mph - N/A   Clear
8:15 AM 68.0 °F - 55.4 °F 64% 29.98 in 10.0 mi SSW 11.5 mph - N/A   Clear
8:35 AM 69.8 °F - 55.4 °F 60% 29.97 in 10.0 mi SSW 12.7 mph - N/A   Clear
8:55 AM 71.6 °F - 55.4 °F 57% 29.97 in 10.0 mi South 10.4 mph - N/A   Partly Cloudy
9:15 AM 73.4 °F - 55.4 °F 53% 29.98 in 10.0 mi SSW 10.4 mph 16.1 mph N/A   Scattered Clouds
9:35 AM 73.4 °F - 53.6 °F 50% 29.97 in 10.0 mi SSW 12.7 mph - N/A   Scattered Clouds
9:55 AM 75.2 °F - 55.4 °F 50% 29.97 in 10.0 mi SSW 10.4 mph - N/A   Partly Cloudy
10:15 AM 75.2 °F - 55.4 °F 50% 29.96 in 10.0 mi South 11.5 mph - N/A   Clear
10:35 AM 77.0 °F - 55.4 °F 47% 29.96 in 10.0 mi South 12.7 mph - N/A   Clear
10:55 AM 78.8 °F - 55.4 °F 44% 29.96 in 10.0 mi South 13.8 mph - N/A   Clear
11:15 AM 78.8 °F - 55.4 °F 44% 29.96 in 10.0 mi South 12.7 mph - N/A   Clear
11:35 AM 80.6 °F 80.5 °F 55.4 °F 42% 29.96 in 10.0 mi SSW 10.4 mph 18.4 mph N/A   Clear
11:55 AM 82.4 °F 81.7 °F 55.4 °F 39% 29.95 in 10.0 mi South 15.0 mph - N/A   Clear
12:15 PM 80.6 °F 80.5 °F 55.4 °F 42% 29.95 in 10.0 mi South 13.8 mph 20.7 mph N/A   Clear
12:35 PM 82.4 °F 81.7 °F 55.4 °F 39% 29.94 in 10.0 mi South 16.1 mph 21.9 mph N/A   Clear
12:55 PM 82.4 °F 81.7 °F 55.4 °F 39% 29.94 in 10.0 mi South 17.3 mph - N/A   Clear
1:15 PM 82.4 °F 81.4 °F 53.6 °F 37% 29.93 in 10.0 mi South 15.0 mph - N/A   Clear
1:35 PM 84.2 °F 82.8 °F 53.6 °F 35% 29.93 in 10.0 mi SSW 15.0 mph 21.9 mph N/A   Clear
1:55 PM 84.2 °F - 51.8 °F 33% 29.93 in 10.0 mi South 18.4 mph 25.3 mph N/A   Clear
2:15 PM 84.2 °F 82.8 °F 53.6 °F 35% 29.92 in 10.0 mi South 20.7 mph 28.8 mph N/A   Clear
2:35 PM 84.2 °F 82.8 °F 53.6 °F 35% 29.92 in 10.0 mi South 17.3 mph 25.3 mph N/A   Clear
2:55 PM 84.2 °F 82.8 °F 53.6 °F 35% 29.92 in 10.0 mi South 20.7 mph 27.6 mph N/A   Clear
3:15 PM 86.0 °F 84.2 °F 53.6 °F 33% 29.91 in 10.0 mi South 19.6 mph 24.2 mph N/A   Clear
3:35 PM 86.0 °F 84.2 °F 53.6 °F 33% 29.92 in 10.0 mi South 19.6 mph 26.5 mph N/A   Clear
3:55 PM 86.0 °F 84.2 °F 53.6 °F 33% 29.91 in 10.0 mi South 20.7 mph 26.5 mph N/A   Clear
4:15 PM 86.0 °F 84.2 °F 53.6 °F 33% 29.91 in 10.0 mi South 21.9 mph 29.9 mph N/A   Clear
4:35 PM 86.0 °F 84.2 °F 53.6 °F 33% 29.90 in 10.0 mi South 21.9 mph 28.8 mph N/A   Clear
4:55 PM 86.0 °F 84.2 °F 53.6 °F 33% 29.90 in 10.0 mi South 20.7 mph 29.9 mph N/A   Clear
5:15 PM 86.0 °F 84.2 °F 53.6 °F 33% 29.90 in 10.0 mi South 23.0 mph 27.6 mph N/A   Clear
5:35 PM 84.2 °F - 51.8 °F 33% 29.90 in 10.0 mi South 21.9 mph 27.6 mph N/A   Clear
5:55 PM 84.2 °F 82.8 °F 53.6 °F 35% 29.90 in 10.0 mi SSW 17.3 mph 24.2 mph N/A   Clear
6:15 PM 84.2 °F 82.8 °F 53.6 °F 35% 29.89 in 10.0 mi South 24.2 mph 27.6 mph N/A   Clear
6:35 PM 82.4 °F 81.4 °F 53.6 °F 37% 29.90 in 10.0 mi South 18.4 mph 28.8 mph N/A   Clear
6:55 PM 82.4 °F 81.4 °F 53.6 °F 37% 29.89 in 10.0 mi South 18.4 mph 24.2 mph N/A   Clear
7:15 PM 82.4 °F 81.4 °F 53.6 °F 37% 29.89 in 10.0 mi South 17.3 mph - N/A   Clear
7:35 PM 82.4 °F 81.4 °F 53.6 °F 37% 29.89 in 10.0 mi South 16.1 mph 20.7 mph N/A   Clear
7:55 PM 80.6 °F 80.5 °F 55.4 °F 42% 29.89 in 10.0 mi South 16.1 mph 23.0 mph N/A   Clear
8:15 PM 80.6 °F 80.3 °F 53.6 °F 39% 29.89 in 10.0 mi South 16.1 mph 21.9 mph N/A   Clear
8:35 PM 78.8 °F - 53.6 °F 42% 29.89 in 10.0 mi South 17.3 mph 21.9 mph N/A   Clear
8:55 PM 78.8 °F - 53.6 °F 42% 29.89 in 10.0 mi South 15.0 mph 21.9 mph N/A   Clear
9:15 PM 77.0 °F - 53.6 °F 44% 29.89 in 10.0 mi South 16.1 mph - N/A   Clear
9:35 PM 77.0 °F - 53.6 °F 44% 29.89 in 10.0 mi South 16.1 mph 21.9 mph N/A   Clear
9:55 PM 75.2 °F - 53.6 °F 47% 29.90 in 10.0 mi South 15.0 mph 19.6 mph N/A   Clear
10:15 PM 75.2 °F - 53.6 °F 47% 29.90 in 10.0 mi South 16.1 mph 20.7 mph N/A   Clear
10:35 PM 75.2 °F - 53.6 °F 47% 29.91 in 10.0 mi South 16.1 mph 21.9 mph N/A   Clear
10:55 PM 73.4 °F - 53.6 °F 50% 29.91 in 10.0 mi South 16.1 mph 20.7 mph N/A   Clear
11:15 PM 73.4 °F - 53.6 °F 50% 29.91 in 10.0 mi South 15.0 mph 19.6 mph N/A   Clear
11:35 PM 73.4 °F - 51.8 °F 47% 29.91 in 10.0 mi South 13.8 mph - N/A   Clear
11:55 PM 71.6 °F - 53.6 °F 53% 29.91 in 10.0 mi South 13.8 mph - N/A   Clear